Location: Newark
(59.4564°N, 26.6917°E)
Time: 15:25:43
(UTC+00:00)

SR - Pass Details

Date: 01 December 2019
Orbit: 573 x 882 km, 66.7° (Epoch: 13 December)

Event Time Altitude Azimuth Distance (km) Brightness Sun altitude
Rises 12:25:52 0° 249° (WSW) 3,352 ? 3.6°
Reaches altitude 10° 12:28:18 10° 253° (WSW) 2,457 ? 3.4°
Maximum altitude 12:33:59 59° 333° (NNW) 1,001 ? 3.0°
Drops below altitude 10° 12:39:53 10° 53° (NE) 2,553 ? 2.6°
Sets 12:42:27 0° 57° (ENE) 3,492 ? 2.4°
